This is the latest recevied weather packets stored in our database for station/object KM4KMO-14. If no packets are shown the sender has not sent any weather packets the latest 10 day(s).
| Time | Temp. | Humidity | Pressure | Rain* | Wind** | Luminosity | Snow |
|---|---|---|---|---|---|---|---|
| 1777754547 | 20° C | 39% | 1011.3 hPa | 0 mm | - | - | - |
| 1777753647 | 19.44° C | 41% | 1011.4 hPa | 0 mm | - | - | - |
| 1777751848 | 18.89° C | 37% | 1011.5 hPa | 0 mm | - | - | - |
| 1777749147 | 18.89° C | 42% | 1011.7 hPa | 0 mm | - | - | - |
| 1777748248 | 19.44° C | 44% | 1011.8 hPa | 0 mm | - | - | - |
| 1777747348 | 18.89° C | 38% | 1012.1 hPa | 0 mm | - | - | - |
| 1777745549 | 18.33° C | 45% | 1012 hPa | 0 mm | - | - | - |
| 1777743748 | 18.89° C | 43% | 1012.3 hPa | 0 mm | - | - | - |
| 1777740148 | 17.22° C | 43% | 1012.9 hPa | 0 mm | - | - | - |
| 1777739248 | 16.11° C | 50% | 1013.2 hPa | 0 mm | - | - | - |
| 1777738348 | 15.56° C | 52% | 1013.2 hPa | 0 mm | - | - | - |
| 1777737448 | 15.56° C | 48% | 1013.1 hPa | 0 mm | - | - | - |
| 1777736547 | 15° C | 53% | 1013 hPa | 0 mm | - | - | - |
| 1777735649 | 15° C | 51% | 1013 hPa | 0 mm | - | - | - |
| 1777734748 | 15° C | 49% | 1012.7 hPa | 0 mm | - | - | - |
| 1777733848 | 15° C | 50% | 1012.6 hPa | 0 mm | - | - | - |
| 1777732947 | 14.44° C | 54% | 1012.5 hPa | 0 mm | - | - | - |
| 1777731149 | 13.33° C | 57% | 1012.4 hPa | 0 mm | - | - | - |
| 1777727549 | 11.67° C | 64% | 1012.3 hPa | 0 mm | - | - | - |
| 1777726648 | 11.67° C | 64% | 1012.2 hPa | 0 mm | - | - | - |
| 1777725749 | 11.67° C | 66% | 1012.2 hPa | 0 mm | - | - | - |
| 1777724849 | 11.11° C | 67% | 1012 hPa | 0 mm | - | - | - |
| 1777723949 | 11.11° C | 68% | 1011.9 hPa | 0 mm | - | - | - |
| 1777722149 | 11.11° C | 68% | 1011.8 hPa | 0 mm | - | - | - |
| 1777721249 | 11.11° C | 68% | 1011.7 hPa | 0 mm | - | - | - |
* Rain latest hour (hover to see other rain measurements)
** Current wind speed in m/s (hover to see current wind gust speed)